AAL1197 KCLT-KDCA

Flight info

Callsign AAL1197
Flight time 0h 52m
Altitude 35000
Route KILNS5 AUDII WAVES CAPSS4
Aircraft A320/M-SDE3FGHIRWY/LB1

Departure

Time 2026-04-26 18:13
Airport Charlotte Douglas International Airport (KCLT)

Arrival

Time 2026-04-26 19:06
Airport Ronald Reagan Washington National Airport (KDCA)
Time Latitude Longitude Altitude Speed Heading
2026-04-26 17:51 35.21830 -80.94587 732 ft 0 kts 111°
2026-04-26 18:00 35.21836 -80.94610 742 ft 4 kts 102°
2026-04-26 18:01 35.21839 -80.94642 732 ft 4 kts 88°
2026-04-26 18:01 35.21836 -80.94675 732 ft 4 kts 76°
2026-04-26 18:01 35.21829 -80.94706 732 ft 4 kts 72°
2026-04-26 18:01 35.21823 -80.94736 731 ft 4 kts 111°
2026-04-26 18:02 35.21823 -80.94744 731 ft 0 kts 181°
2026-04-26 18:04 35.21771 -80.94742 732 ft 12 kts 175°
2026-04-26 18:04 35.21696 -80.94735 732 ft 10 kts 175°
2026-04-26 18:04 35.21636 -80.94720 732 ft 8 kts 148°
2026-04-26 18:05 35.21602 -80.94607 732 ft 5 kts 161°
2026-04-26 18:05 35.21571 -80.94597 732 ft 3 kts 126°
2026-04-26 18:05 35.21570 -80.94591 732 ft 0 kts 111°
2026-04-26 18:07 35.21559 -80.94562 732 ft 10 kts 120°
2026-04-26 18:07 35.21491 -80.94486 732 ft 16 kts 138°
2026-04-26 18:07 35.21402 -80.94389 731 ft 18 kts 140°
2026-04-26 18:07 35.21336 -80.94323 732 ft 19 kts 142°
2026-04-26 18:08 35.21290 -80.94186 734 ft 12 kts 68°
2026-04-26 18:08 35.21357 -80.94076 735 ft 20 kts 50°
2026-04-26 18:08 35.21450 -80.93939 734 ft 21 kts 50°
2026-04-26 18:08 35.21515 -80.93843 734 ft 2 kts 50°
2026-04-26 18:09 35.21536 -80.93801 732 ft 5 kts 95°
2026-04-26 18:09 35.21506 -80.93776 732 ft 6 kts 144°
2026-04-26 18:09 35.21460 -80.93729 733 ft 15 kts 139°
2026-04-26 18:09 35.21353 -80.93656 733 ft 19 kts 172°
2026-04-26 18:10 35.21196 -80.93642 733 ft 26 kts 176°
2026-04-26 18:10 35.21000 -80.93625 733 ft 29 kts 175°
2026-04-26 18:10 35.20794 -80.93608 733 ft 30 kts 176°
2026-04-26 18:10 35.20584 -80.93590 733 ft 31 kts 175°
2026-04-26 18:11 35.20392 -80.93574 733 ft 23 kts 176°
2026-04-26 18:11 35.20225 -80.93556 733 ft 25 kts 178°
2026-04-26 18:11 35.20113 -80.93533 733 ft 7 kts 134°
2026-04-26 18:11 35.20109 -80.93526 733 ft 0 kts 123°
2026-04-26 18:12 35.20107 -80.93521 733 ft 4 kts 118°
2026-04-26 18:12 35.20105 -80.93456 734 ft 11 kts 83°
2026-04-26 18:12 35.20159 -80.93417 734 ft 10 kts 359°
2026-04-26 18:12 35.20240 -80.93425 735 ft 21 kts 356°
2026-04-26 18:13 35.20680 -80.93463 736 ft 107 kts 356°
2026-04-26 18:13 35.21677 -80.93547 829 ft 168 kts
2026-04-26 18:13 35.22866 -80.93547 1701 ft 172 kts 17°
2026-04-26 18:13 35.23241 -80.93435 2059 ft 172 kts 19°
2026-04-26 18:14 35.25358 -80.92649 2914 ft 210 kts 21°
2026-04-26 18:14 35.26816 -80.92033 3429 ft 233 kts 27°
2026-04-26 18:14 35.28094 -80.90722 4151 ft 250 kts 55°
2026-04-26 18:14 35.28665 -80.88681 5030 ft 262 kts 81°
2026-04-26 18:15 35.28888 -80.86451 5926 ft 267 kts 81°
2026-04-26 18:15 35.29134 -80.84172 6741 ft 274 kts 81°
2026-04-26 18:15 35.29393 -80.81840 7560 ft 278 kts 80°
2026-04-26 18:15 35.29652 -80.79483 8411 ft 282 kts 81°
2026-04-26 18:16 35.29913 -80.77088 9254 ft 286 kts 81°
2026-04-26 18:16 35.30447 -80.72176 10514 ft 309 kts 81°
2026-04-26 18:16 35.30742 -80.69468 10768 ft 331 kts 81°
2026-04-26 18:17 35.31049 -80.66634 11352 ft 340 kts 81°
2026-04-26 18:17 35.31359 -80.63752 12108 ft 343 kts 81°
2026-04-26 18:17 35.31670 -80.60844 12893 ft 345 kts 81°
2026-04-26 18:17 35.31981 -80.57924 13664 ft 348 kts 81°
2026-04-26 18:18 35.32295 -80.54971 14335 ft 351 kts 81°
2026-04-26 18:18 35.32612 -80.51978 14922 ft 357 kts 81°
2026-04-26 18:18 35.33013 -80.48961 15469 ft 361 kts 74°
2026-04-26 18:18 35.33813 -80.46027 16033 ft 365 kts 68°
2026-04-26 18:19 35.34714 -80.43096 16589 ft 371 kts 67°
2026-04-26 18:19 35.35626 -80.40120 17158 ft 376 kts 67°
2026-04-26 18:19 35.36548 -80.37100 17726 ft 381 kts 67°
2026-04-26 18:19 35.37481 -80.34041 18298 ft 386 kts 67°
2026-04-26 18:20 35.38424 -80.30938 18796 ft 391 kts 67°
2026-04-26 18:20 35.39052 -80.28859 19130 ft 394 kts 67°
2026-04-26 18:20 35.40005 -80.25698 19639 ft 398 kts 68°
2026-04-26 18:20 35.40641 -80.23587 19988 ft 400 kts 67°
2026-04-26 18:21 35.41936 -80.19278 20667 ft 406 kts 68°
2026-04-26 18:21 35.42917 -80.16009 21176 ft 409 kts 68°
2026-04-26 18:21 35.43911 -80.12721 21682 ft 413 kts 68°
2026-04-26 18:21 35.44928 -80.09404 22184 ft 417 kts 67°
2026-04-26 18:22 35.45959 -80.06063 22679 ft 421 kts 67°
2026-04-26 18:22 35.46999 -80.02693 23148 ft 425 kts 67°
2026-04-26 18:22 35.48046 -79.99283 23600 ft 429 kts 67°
2026-04-26 18:22 35.49095 -79.95844 23990 ft 432 kts 67°
2026-04-26 18:23 35.50147 -79.92378 24390 ft 435 kts 67°
2026-04-26 18:23 35.51204 -79.88892 24786 ft 437 kts 68°
2026-04-26 18:23 35.52265 -79.85379 25182 ft 440 kts 68°
2026-04-26 18:23 35.53332 -79.81848 25565 ft 442 kts 68°
2026-04-26 18:24 35.54413 -79.78310 25942 ft 444 kts 67°
2026-04-26 18:24 35.55517 -79.74762 26325 ft 446 kts 67°
2026-04-26 18:24 35.56626 -79.71242 26693 ft 448 kts 67°
2026-04-26 18:24 35.57757 -79.67666 27043 ft 451 kts 67°
2026-04-26 18:25 35.58892 -79.64070 27404 ft 453 kts 67°
2026-04-26 18:25 35.60027 -79.60455 27755 ft 455 kts 67°
2026-04-26 18:25 35.61178 -79.56762 28095 ft 457 kts 68°
2026-04-26 18:25 35.62296 -79.53158 28426 ft 459 kts 68°
2026-04-26 18:26 35.63437 -79.49483 28753 ft 461 kts 68°
2026-04-26 18:26 35.64584 -79.45790 29067 ft 463 kts 68°
2026-04-26 18:26 35.65751 -79.42025 29378 ft 466 kts 68°
2026-04-26 18:26 35.66886 -79.38344 29663 ft 468 kts 68°
2026-04-26 18:27 35.68040 -79.34592 29950 ft 470 kts 68°
2026-04-26 18:27 35.69362 -79.30921 30216 ft 470 kts 60°
2026-04-26 18:27 35.71110 -79.27533 30432 ft 470 kts 51°
2026-04-26 18:27 35.73186 -79.24612 30638 ft 469 kts 42°
2026-04-26 18:28 35.75670 -79.22020 30851 ft 468 kts 34°
2026-04-26 18:28 35.78297 -79.19645 31088 ft 469 kts 34°
2026-04-26 18:28 35.80920 -79.17256 31387 ft 468 kts 34°
2026-04-26 18:28 35.83529 -79.14866 31678 ft 468 kts 34°
2026-04-26 18:29 35.86134 -79.12467 31960 ft 468 kts 34°
2026-04-26 18:29 35.88744 -79.10061 32255 ft 467 kts 34°
2026-04-26 18:29 35.91350 -79.07658 32545 ft 467 kts 34°
2026-04-26 18:29 35.93954 -79.05261 32837 ft 467 kts 34°
2026-04-26 18:30 35.96556 -79.02869 33113 ft 467 kts 34°
2026-04-26 18:30 35.99158 -79.00476 33389 ft 467 kts 34°
2026-04-26 18:30 36.01761 -78.98077 33670 ft 467 kts 34°
2026-04-26 18:30 36.04360 -78.95676 33950 ft 467 kts 34°
2026-04-26 18:31 36.06959 -78.93274 34236 ft 466 kts 34°
2026-04-26 18:31 36.09560 -78.90872 34488 ft 466 kts 34°
2026-04-26 18:31 36.12123 -78.88506 34741 ft 465 kts 34°
2026-04-26 18:31 36.14723 -78.86103 34988 ft 465 kts 34°
2026-04-26 18:32 36.17314 -78.83706 35108 ft 464 kts 34°
2026-04-26 18:32 36.19891 -78.81320 35134 ft 463 kts 34°
2026-04-26 18:32 36.25001 -78.76487 35125 ft 462 kts 36°
2026-04-26 18:33 36.30056 -78.71573 35117 ft 461 kts 36°
2026-04-26 18:33 36.35110 -78.66654 35125 ft 461 kts 36°
2026-04-26 18:34 36.40173 -78.61761 35131 ft 461 kts 36°
2026-04-26 18:34 36.45248 -78.56865 35128 ft 461 kts 36°
2026-04-26 18:35 36.50318 -78.51964 35120 ft 462 kts 36°
2026-04-26 18:35 36.55344 -78.47081 35118 ft 462 kts 36°
2026-04-26 18:36 36.60402 -78.42153 35133 ft 462 kts 36°
2026-04-26 18:36 36.65460 -78.37211 35139 ft 462 kts 36°
2026-04-26 18:37 36.70515 -78.32281 35141 ft 461 kts 36°
2026-04-26 18:37 36.75567 -78.27348 35139 ft 461 kts 36°
2026-04-26 18:38 36.80614 -78.22398 35166 ft 461 kts 36°
2026-04-26 18:38 36.85661 -78.17449 35160 ft 461 kts 36°
2026-04-26 18:39 36.90706 -78.12494 35127 ft 462 kts 37°
2026-04-26 18:39 36.95750 -78.07519 35132 ft 462 kts 37°
2026-04-26 18:40 37.00797 -78.02538 35134 ft 462 kts 37°
2026-04-26 18:40 37.05893 -77.97504 34884 ft 476 kts 37°
2026-04-26 18:41 37.08510 -77.94920 34642 ft 481 kts 37°
2026-04-26 18:41 37.11140 -77.92323 34298 ft 481 kts 37°
2026-04-26 18:41 37.13773 -77.89717 33392 ft 480 kts 37°
2026-04-26 18:41 37.16367 -77.87139 32756 ft 473 kts 37°
2026-04-26 18:42 37.18930 -77.84589 31908 ft 471 kts 37°
2026-04-26 18:42 37.21489 -77.82045 30888 ft 467 kts 37°
2026-04-26 18:42 37.23983 -77.79564 30384 ft 460 kts 37°
2026-04-26 18:42 37.26478 -77.77082 29702 ft 456 kts 37°
2026-04-26 18:43 37.28941 -77.74628 29121 ft 449 kts 37°
2026-04-26 18:43 37.31373 -77.72197 28511 ft 444 kts 37°
2026-04-26 18:43 37.33771 -77.69797 27922 ft 439 kts 37°
2026-04-26 18:43 37.36149 -77.67418 27340 ft 434 kts 37°
2026-04-26 18:44 37.38503 -77.65066 26758 ft 430 kts 37°
2026-04-26 18:44 37.40835 -77.62736 26189 ft 426 kts 37°
2026-04-26 18:44 37.43146 -77.60421 25643 ft 422 kts 37°
2026-04-26 18:44 37.45428 -77.58131 25104 ft 418 kts 37°
2026-04-26 18:45 37.47664 -77.55885 24592 ft 414 kts 36°
2026-04-26 18:45 37.49904 -77.53638 24079 ft 410 kts 36°
2026-04-26 18:45 37.52123 -77.51415 23577 ft 406 kts 37°
2026-04-26 18:45 37.54320 -77.49213 23071 ft 400 kts 37°
2026-04-26 18:46 37.56481 -77.47045 22607 ft 394 kts 36°
2026-04-26 18:46 37.58774 -77.45218 22163 ft 387 kts 25°
2026-04-26 18:46 37.61253 -77.44004 21839 ft 377 kts 14°
2026-04-26 18:46 37.63778 -77.43212 21344 ft 374 kts 13°
2026-04-26 18:47 37.66291 -77.42442 20937 ft 369 kts 13°
2026-04-26 18:47 37.68783 -77.41679 20466 ft 366 kts 13°
2026-04-26 18:47 37.71239 -77.40925 20028 ft 362 kts 13°
2026-04-26 18:47 37.73674 -77.40175 19618 ft 358 kts 13°
2026-04-26 18:48 37.76083 -77.39430 19168 ft 355 kts 13°
2026-04-26 18:48 37.78476 -77.38694 18756 ft 352 kts 13°
2026-04-26 18:48 37.80839 -77.37963 18338 ft 348 kts 13°
2026-04-26 18:48 37.83177 -77.37238 17907 ft 344 kts 13°
2026-04-26 18:49 37.85499 -77.36517 17352 ft 344 kts 13°
2026-04-26 18:49 37.87808 -77.35798 16930 ft 340 kts 13°
2026-04-26 18:49 37.90096 -77.35091 16541 ft 336 kts 13°
2026-04-26 18:49 37.92353 -77.34395 16156 ft 333 kts 13°
2026-04-26 18:50 37.94602 -77.33701 15769 ft 331 kts 13°
2026-04-26 18:50 37.96838 -77.33014 15378 ft 329 kts 13°
2026-04-26 18:50 37.99060 -77.32333 14994 ft 327 kts 13°
2026-04-26 18:50 38.01267 -77.31655 14613 ft 326 kts 13°
2026-04-26 18:51 38.03465 -77.30978 14234 ft 324 kts 13°
2026-04-26 18:51 38.05640 -77.30305 13807 ft 318 kts 13°
2026-04-26 18:51 38.07723 -77.29661 13585 ft 297 kts 13°
2026-04-26 18:51 38.09684 -77.29052 13160 ft 286 kts 13°
2026-04-26 18:52 38.11600 -77.28450 12558 ft 282 kts 14°
2026-04-26 18:52 38.13493 -77.27852 11920 ft 279 kts 13°
2026-04-26 18:52 38.15373 -77.27257 11281 ft 278 kts 13°
2026-04-26 18:52 38.17243 -77.26668 10656 ft 276 kts 13°
2026-04-26 18:53 38.19084 -77.26058 9896 ft 282 kts 17°
2026-04-26 18:53 38.20941 -77.25282 9438 ft 276 kts 18°
2026-04-26 18:53 38.22697 -77.24495 9242 ft 259 kts 19°
2026-04-26 18:53 38.24355 -77.23734 8904 ft 249 kts 19°
2026-04-26 18:54 38.25973 -77.22989 8446 ft 247 kts 19°
2026-04-26 18:54 38.27583 -77.22246 8130 ft 244 kts 19°
2026-04-26 18:54 38.29167 -77.21519 7965 ft 243 kts 19°
2026-04-26 18:54 38.30756 -77.20794 7790 ft 242 kts 19°
2026-04-26 18:55 38.32337 -77.20075 7630 ft 241 kts 19°
2026-04-26 18:55 38.33918 -77.19357 7463 ft 240 kts 19°
2026-04-26 18:55 38.35480 -77.18646 7294 ft 234 kts 19°
2026-04-26 18:55 38.36996 -77.17957 7148 ft 229 kts 19°
2026-04-26 18:56 38.38488 -77.17280 7004 ft 227 kts 19°
2026-04-26 18:56 38.39974 -77.16606 6861 ft 226 kts 19°
2026-04-26 18:56 38.41455 -77.15932 6721 ft 225 kts 19°
2026-04-26 18:56 38.42930 -77.15258 6576 ft 225 kts 19°
2026-04-26 18:57 38.44402 -77.14585 6422 ft 224 kts 19°
2026-04-26 18:57 38.45373 -77.14142 6317 ft 224 kts 19°
2026-04-26 18:57 38.47337 -77.13246 6114 ft 223 kts 19°
2026-04-26 18:57 38.48798 -77.12580 5956 ft 223 kts 20°
2026-04-26 18:58 38.50252 -77.11916 5802 ft 221 kts 20°
2026-04-26 18:58 38.51662 -77.11273 5645 ft 214 kts 20°
2026-04-26 18:58 38.53054 -77.10628 5488 ft 212 kts 24°
2026-04-26 18:58 38.54368 -77.09788 5338 ft 211 kts 28°
2026-04-26 18:59 38.55690 -77.08920 5148 ft 212 kts 27°
2026-04-26 18:59 38.56986 -77.08074 4839 ft 212 kts 27°
2026-04-26 18:59 38.58294 -77.07222 4497 ft 210 kts 27°
2026-04-26 18:59 38.59591 -77.06380 4202 ft 207 kts 26°
2026-04-26 19:00 38.60860 -77.05557 3968 ft 202 kts 27°
2026-04-26 19:00 38.62097 -77.04752 3733 ft 197 kts 27°
2026-04-26 19:00 38.63301 -77.03964 3503 ft 192 kts 27°
2026-04-26 19:00 38.64485 -77.03187 3270 ft 190 kts 26°
2026-04-26 19:01 38.65650 -77.02427 3031 ft 186 kts 26°
2026-04-26 19:01 38.66877 -77.01985 2803 ft 183 kts
2026-04-26 19:01 38.68131 -77.02078 2599 ft 177 kts 358°
2026-04-26 19:01 38.69347 -77.02202 2369 ft 173 kts 357°
2026-04-26 19:02 38.70543 -77.02321 2191 ft 172 kts 357°
2026-04-26 19:02 38.71696 -77.02435 2179 ft 158 kts 357°
2026-04-26 19:02 38.72763 -77.02540 2184 ft 155 kts 357°
2026-04-26 19:02 38.73483 -77.02609 2144 ft 158 kts 357°
2026-04-26 19:03 38.74950 -77.02751 1810 ft 156 kts 358°
2026-04-26 19:03 38.76002 -77.02847 1600 ft 146 kts 358°
2026-04-26 19:03 38.76977 -77.02936 1438 ft 136 kts 358°
2026-04-26 19:03 38.77919 -77.03030 1274 ft 135 kts 358°
2026-04-26 19:04 38.78839 -77.03134 1099 ft 134 kts 356°
2026-04-26 19:04 38.79767 -77.03251 956 ft 134 kts 357°
2026-04-26 19:04 38.80697 -77.03342 763 ft 134 kts 357°
2026-04-26 19:04 38.81625 -77.03430 597 ft 133 kts 359°
2026-04-26 19:05 38.83467 -77.03610 208 ft 133 kts 357°
2026-04-26 19:05 38.84375 -77.03698 33 ft 129 kts 357°
2026-04-26 19:05 38.85114 -77.03772 24 ft 70 kts 355°
2026-04-26 19:06 38.85455 -77.03813 25 ft 21 kts 346°
2026-04-26 19:06 38.85554 -77.03933 25 ft 15 kts 301°
2026-04-26 19:06 38.85560 -77.04001 24 ft 1 kts 252°
2026-04-26 19:06 38.85549 -77.04044 24 ft 6 kts 252°
2026-04-26 19:07 38.85537 -77.04093 26 ft 6 kts 252°
2026-04-26 19:07 38.85526 -77.04138 26 ft 5 kts 252°
2026-04-26 19:07 38.85517 -77.04176 24 ft 4 kts 252°
2026-04-26 19:07 38.85524 -77.04199 24 ft 2 kts 320°
2026-04-26 19:08 38.85533 -77.04205 25 ft 3 kts 334°
2026-04-26 19:08 38.85558 -77.04219 27 ft 0 kts 336°
2026-04-26 19:08 38.85560 -77.04220 26 ft 1 kts 336°